Regional Weather Roundup
Issued by NWS

Home | Current Version | Previous Version | Text Only | Print | Product List | Glossary Off
Versions: 1 2 3 4 5 6 7 8 9 10 11 12 13 14 15 16 17 18 19 20 21 22 23 24 25 26 27 28 29 30 31 32 33 34 35 36 37 38 39 40 41 42 43 44 45 46 47 48 49 50

000
ASUS43 KLSX 061307
RWRMO

WEATHER SUMMARY FOR MISSOURI
NATIONAL WEATHER SERVICE SPRINGFIELD MO
700 AM CST SAT FEB 06 2016

NOTE: "FAIR" INDICATES FEW OR NO CLOUDS BELOW 12,000 FEET WITH NO
       SIGNIFICANT WEATHER AND/OR OBSTRUCTIONS TO VISIBILITY.
       CURRENT SKY AND/OR WEATHER CONDITIONS ARE NOT AVAILABLE FOR
       CHILLICOTHE AND FARMINGTON.

MOZ001>031-035>038-043-044-053-054-061400-
...NORTHERN AND WESTERN MISSOURI...

CITY           SKY/WX    TMP DP  RH WIND       PRES   REMARKS
KANSAS CTY INT CLEAR     27  22  81 NW7       30.27R WCI  19
KANSAS C DTWN  CLEAR     27  24  89 CALM      30.28R
LEE`S SUMMIT   CLEAR     27  22  81 W3        30.27R
ST JOSEPH      PTCLDY    23  20  88 CALM      30.30R
CHILLICOTHE      N/A     24  21  88 NW3       30.28R
KIRKSVILLE     CLEAR     21  16  81 CALM      30.26R

$$
MOZ066>068-077>081-088>096-101>105-061400-
...SOUTHWEST MISSOURI...

CITY           SKY/WX    TMP DP  RH WIND       PRES   REMARKS
SPRINGFIELD    CLEAR     26  17  68 S8        30.28S WCI  18
JOPLIN         PTCLDY    34  20  56 SW7       30.30R WCI  28

$$
MOZ032>034-039>042-045>050-055>058-069>072-061400-
...CENTRAL MISSOURI...

CITY           SKY/WX    TMP DP  RH WIND       PRES   REMARKS
COLUMBIA       CLEAR     30  19  63 S7        30.26R WCI  23
JEFFERSON CITY CLEAR     27  20  75 E3        30.29R
ROLLA          CLEAR     32  18  56 S10       30.26S WCI  24
SEDALIA        CLEAR     35  22  58 SW9       30.28R WCI  28
WHITEMAN AFB   CLEAR     30  22  72 SW9       30.25R WCI  22
WARRENSBURG    CLEAR     32  23  69 CALM      30.27S
OSAGE BEACH    CLEAR     27  18  69 SE5       30.28S WCI  21

$$
MOZ051-052-059>065-061400-
...EAST CENTRAL MISSOURI...

CITY           SKY/WX    TMP DP  RH WIND       PRES   REMARKS
ST LOUIS INTL  PTCLDY    29  21  72 SE5       30.31S WCI  24
SPIRIT OF STL  CLEAR     23  20  88 CALM      30.30S
ST CHARLES     CLEAR     24  21  88 E7        30.31R WCI  16

$$
MOZ072>076-082>087-097>100-106>115-061400-
...SOUTH CENTRAL AND SOUTHEAST MISSOURI...

CITY           SKY/WX    TMP DP  RH WIND       PRES   REMARKS
CAPE GIRARDEAU CLEAR     26  23  88 CALM      30.35R
FARMINGTON     PTCLDY    23  19  85 CALM      30.31S
POPLAR BLUFF   PTCLDY    25  22  88 CALM      30.35R
WEST PLAINS    MOCLDY    33  15  47 SW3       30.32R

$$


USA.gov is the U.S. government's official web portal to all federal, state and local government web resources and services.